Theta_e
301 299 299 298 299 299 299 299 301 302 302 303 303 303 302 302 302 302 306 308 309 310 311 311 311 312 312 314 317 321 322 324 319 320 320 320 319 318 320 320 321 320 324 324 323 326 327 328 328 328 328 329 328 327
300 300 299 298 299 299 300 299 301 302 303 303 303 303 302 302 302 302 304 308 308 310 311 312 310 313 313 317 314 318 323 322 325 320 322 320 321 318 316 320 319 321 323 324 323 324 327 329 329 329 329 328 327 326
300 300 299 299 300 300 299 299 300 303 303 303 303 303 301 302 302 302 302 307 310 310 309 310 310 310 311 316 318 318 321 320 321 324 324 322 326 319 322 322 320 319 323 321 320 324 324 326 325 325 325 326 325 324
298 298 298 299 299 300 300 300 300 302 303 303 303 302 301 302 302 302 302 306 307 308 309 311 314 315 315 313 315 315 318 318 320 322 322 319 321 319 318 318 318 319 321 320 321 323 324 326 325 325 325 324 323 323
300 300 301 300 300 299 300 300 299 302 302 303 304 302 301 302 302 302 302 304 307 306 308 310 311 315 316 314 313 312 313 316 319 320 318 318 318 318 317 316 318 320 319 319 319 323 324 326 325 324 323 324 323 324
301 300 301 301 300 299 300 300 300 301 301 303 304 302 302 302 301 303 308 304 307 308 309 307 311 315 316 315 314 314 313 315 317 318 318 319 319 319 317 319 320 323 325 326 324 324 324 325 325 324 324 324 324 324
301 301 300 301 300 299 300 299 300 301 302 303 304 302 302 302 302 302 306 308 307 308 310 309 310 314 316 315 315 314 314 317 317 317 317 317 318 319 315 317 319 323 324 326 325 325 323 322 322 321 320 320 320 320
301 300 300 301 299 299 299 299 301 302 303 304 303 302 302 302 302 302 307 309 307 308 311 309 310 314 314 316 315 315 315 315 317 318 318 316 318 318 316 316 319 324 323 324 324 323 323 321 321 321 320 321 322 324
300 300 300 300 299 300 299 301 302 302 304 304 302 302 301 301 302 307 306 307 308 311 312 312 311 316 317 316 316 316 317 314 317 314 315 317 314 317 316 319 323 323 323 320 320 321 323 322 320 320 324 324 324 324
299 300 300 299 299 299 301 302 303 304 304 302 301 301 303 305 307 307 309 309 308 308 311 310 313 312 319 320 316 316 316 313 315 314 317 313 314 319 321 322 322 321 320 319 319 323 321 320 322 323 324 323 323 323
300 300 300 299 299 301 303 303 304 303 301 301 303 304 305 307 307 309 310 309 310 310 311 312 311 310 316 317 319 320 319 317 317 316 316 315 315 322 323 322 321 320 321 323 323 323 322 322 323 323 323 323 322 321
300 300 299 299 302 303 303 304 303 301 302 303 304 306 308 308 309 310 309 309 310 310 311 310 311 311 314 321 319 319 319 317 321 320 320 321 318 322 322 323 322 322 322 322 322 323 322 322 322 322 321 321 320 318
299 299 300 302 303 303 303 302 301 303 303 304 304 306 307 307 307 311 312 312 311 313 315 313 311 312 313 319 319 318 320 319 321 319 323 321 323 324 320 320 319 321 321 321 321 321 321 320 318 316 315 316 315 315
299 300 302 303 303 303 303 301 301 303 303 304 307 304 308 309 309 307 309 312 313 315 316 315 314 316 317 318 316 319 317 319 323 323 322 322 323 322 322 322 320 320 321 320 320 320 319 317 316 312 310 310 311 310
302 302 303 303 303 303 302 301 301 302 303 305 304 305 308 309 311 312 311 311 315 315 316 317 316 316 316 317 316 316 320 321 323 322 321 322 321 321 321 321 321 320 320 320 319 319 318 317 315 312 311 310 309 308
303 303 302 302 302 302 301 301 301 304 304 304 304 306 307 309 310 311 311 312 316 314 315 316 316 316 317 315 319 319 320 321 321 319 322 320 319 320 321 321 321 320 319 319 319 319 318 317 315 313 311 310 309 308
303 303 302 302 302 301 301 301 302 305 305 306 307 307 307 309 311 313 311 313 316 314 314 316 318 318 315 318 320 318 318 317 322 321 320 319 320 321 320 319 320 320 320 318 317 318 317 315 315 314 311 310 310 309
304 302 301 302 302 301 303 304 304 307 306 306 306 307 308 308 308 309 310 314 313 313 314 317 316 318 319 319 319 317 320 322 319 319 320 319 319 318 318 319 318 318 317 317 317 316 316 315 315 315 312 310 310 309
302 302 302 302 302 303 303 304 305 307 307 307 307 307 308 310 311 311 313 316 317 317 316 317 317 318 319 318 319 320 320 318 320 318 318 318 317 315 315 316 315 315 316 317 316 317 316 314 311 311 312 311 310 308
302 302 303 303 303 305 306 307 306 306 306 307 306 307 309 310 311 314 317 317 316 317 318 319 318 317 317 318 319 320 319 318 318 318 317 315 315 314 314 314 315 314 314 314 314 314 312 311 310 310 310 310 309 307
303 303 303 303 304 306 307 306 305 304 304 305 307 310 311 314 313 316 316 318 318 317 320 320 319 319 317 317 317 317 318 318 315 315 314 314 313 313 313 314 315 314 313 312 312 311 310 310 310 310 310 310 307 306
305 303 306 305 304 304 303 304 304 305 306 308 312 312 314 317 318 318 318 319 319 319 320 320 319 318 318 318 318 318 317 314 314 314 313 313 313 312 313 313 313 312 311 311 311 311 309 309 309 309 309 309 306 305
304 303 301 301 301 300 304 306 305 308 311 316 317 318 317 317 316 317 317 317 318 317 316 317 317 317 317 316 316 315 314 314 313 313 313 312 312 313 313 312 312 311 311 310 310 309 308 307 307 308 307 308 306 305
306 306 307 307 304 308 313 314 314 317 318 317 317 317 316 316 315 315 314 316 317 317 317 316 315 315 316 315 315 314 315 316 315 314 313 312 313 313 312 311 310 309 309 309 309 308 307 307 306 307 306 306 305 304
309 311 313 313 317 317 318 317 317 316 316 316 316 315 315 315 312 314 315 315 314 314 316 317 317 317 316 316 314 314 315 314 314 314 314 314 314 313 311 310 309 308 308 308 307 307 307 306 307 306 305 305 305 305
309 316 316 318 317 317 317 318 318 317 317 318 318 318 318 315 314 314 315 314 313 313 313 313 313 312 312 313 313 313 314 314 314 313 312 313 313 312 311 309 309 308 308 308 307 307 307 306 306 306 305 305 305 305
315 318 317 317 317 318 318 318 318 317 318 318 317 318 315 315 316 315 314 314 314 313 313 313 312 312 311 311 311 311 312 313 312 311 311 310 310 311 310 309 309 308 307 307 307 307 307 306 306 306 306 305 305 305
318 318 317 317 317 317 318 317 317 317 317 317 317 317 318 317 314 315 314 314 313 313 313 313 313 312 311 310 311 311 311 310 311 311 310 310 309 309 308 308 308 308 307 307 306 306 305 306 306 305 305 306 306 305
317 316 316 317 317 317 317 316 316 315 314 314 313 313 315 314 314 314 314 313 313 313 313 313 313 313 311 310 311 310 311 311 312 311 310 309 308 308 308 308 308 308 308 308 308 307 306 306 306 306 305 306 306 306
316 317 316 317 317 317 316 316 316 315 315 315 314 314 314 314 314 314 313 313 313 313 312 312 312 312 312 311 311 311 310 310 310 310 309 309 309 309 308 308 308 308 308 308 308 308 307 307 307 307 307 306 306 306
317 317 317 317 316 316 316 315 315 315 315 314 314 314 314 314 313 312 313 313 312 312 312 312 312 311 311 310 310 310 310 310 310 309 308 307 306 306 309 309 308 308 308 308 308 308 307 307 307 307 307 307 306 306
317 317 317 316 317 316 316 316 317 316 315 314 314 314 314 314 314 314 314 312 312 312 312 312 311 311 310 310 309 309 309 309 309 308 307 306 305 302 302 308 308 308 308 307 307 307 307 307 307 307 306 306 306 305
318 318 318 318 318 318 318 317 317 317 317 316 315 314 314 314 314 314 314 313 314 312 312 311 311 311 311 311 310 309 309 309 309 308 308 308 304 303 304 306 307 307 308 308 307 307 307 307 306 306 306 306 306 306
Wind_Speed
15 13 13 13 13 13 12 11 11 10 10 10 9 9 10 10 10 4 8 3 4 5 18 15 12 10 11 6 3 10 4 7 5 4 3 3 2 3 2 3 4 5 4 4 2 3 6 6 4 5 6 10 7 4
18 16 15 14 14 13 12 11 10 9 10 9 8 7 9 8 8 6 10 3 4 10 8 13 15 16 13 6 10 9 1 5 6 4 2 3 1 1 3 2 4 2 5 4 6 5 2 8 13 9 8 14 9 5
19 17 16 16 14 14 12 11 10 9 9 8 8 6 7 7 6 7 6 3 1 7 17 12 10 9 11 11 2 3 5 8 6 7 3 2 3 2 2 1 2 7 2 3 3 4 5 14 11 10 8 9 7 7
21 20 18 16 14 12 12 11 10 9 8 7 7 5 5 5 6 7 5 3 2 4 4 5 2 5 7 11 10 9 6 5 6 6 5 3 2 3 1 3 2 3 6 3 2 4 16 18 10 5 4 4 2 1
18 18 17 15 13 12 12 11 10 9 8 8 6 4 5 6 7 7 7 8 4 4 4 13 15 3 3 10 11 8 5 4 3 4 3 1 1 3 2 2 1 5 2 2 4 2 13 4 12 7 5 3 2 6
17 16 16 17 15 13 12 10 10 9 9 8 7 4 4 5 5 2 4 9 6 3 3 4 7 9 6 11 10 9 6 6 6 4 2 2 3 3 2 2 2 11 13 9 3 10 15 12 10 10 8 8 8 10
15 16 15 15 14 12 11 10 9 8 8 8 7 4 5 5 6 5 3 11 9 4 2 6 6 5 16 4 13 10 10 6 6 5 4 2 1 3 2 3 5 9 11 14 15 11 10 7 5 8 8 8 9 9
16 14 13 12 12 10 10 9 8 7 7 8 6 4 4 6 8 6 2 7 10 4 3 2 4 4 12 8 6 9 8 7 3 5 2 5 4 4 2 5 6 13 13 12 9 8 9 8 6 6 8 11 10 12
13 13 12 11 10 10 9 8 8 8 9 7 4 4 4 4 1 5 5 5 7 0 2 3 2 3 5 8 8 8 8 2 4 4 5 3 2 3 6 10 12 12 11 10 7 6 7 9 9 8 11 11 10 10
10 10 10 9 9 9 8 9 10 10 9 7 5 2 2 2 3 11 4 3 5 4 4 4 6 3 1 3 5 8 6 3 2 5 6 3 4 6 8 6 10 7 2 3 7 10 8 9 10 10 10 10 11 11
9 8 8 8 10 9 10 12 14 14 11 8 2 2 3 1 6 1 3 4 5 3 6 8 13 4 4 2 2 0 3 0 3 4 5 3 2 7 13 10 6 6 9 8 9 6 5 8 9 6 8 9 9 9
8 8 8 10 10 11 13 15 14 13 7 4 1 2 3 2 2 2 3 2 3 4 5 8 11 13 4 0 4 2 2 2 3 2 3 2 3 8 12 14 13 13 15 12 12 15 13 10 9 10 9 7 8 8
8 9 9 9 11 14 14 14 15 9 4 3 1 0 1 3 1 3 3 3 3 5 6 10 4 10 7 3 3 2 2 4 6 2 3 3 8 11 11 13 13 14 13 15 16 12 12 11 12 12 11 8 7 8
11 11 10 9 9 15 12 13 13 6 2 1 1 1 2 3 3 4 2 4 9 13 16 10 16 6 7 5 5 3 4 3 4 4 4 3 15 16 13 11 10 14 14 17 17 14 15 15 15 15 14 13 11 13
11 12 13 13 14 15 13 12 9 6 1 1 1 2 4 8 9 8 9 14 10 11 8 5 3 5 2 2 1 2 1 3 1 4 3 16 17 16 13 11 11 14 15 15 13 13 12 12 12 16 17 19 18 18
18 14 11 12 14 14 13 11 9 2 2 2 4 4 9 9 6 5 15 14 12 7 3 1 0 1 2 3 2 4 2 3 2 1 19 18 15 13 11 10 12 15 15 12 9 10 11 9 9 14 16 16 16 17
10 8 12 13 15 14 11 9 4 3 3 3 6 10 17 16 11 10 14 17 7 5 1 3 1 0 1 2 2 1 3 3 16 22 17 16 14 14 17 17 16 14 13 12 12 12 11 9 9 10 12 11 11 13
7 14 14 14 13 13 11 3 2 3 4 6 5 8 11 15 16 17 18 14 7 5 10 3 3 1 3 4 1 2 3 16 20 20 17 17 20 16 12 12 11 10 10 11 10 12 11 9 5 6 5 6 8 10
11 11 11 12 12 4 3 3 3 3 6 8 11 14 10 13 12 12 15 13 7 11 9 6 2 1 2 3 7 12 17 22 21 20 19 16 13 11 9 10 9 9 12 15 10 10 11 7 5 2 5 4 4 6
10 7 9 9 6 2 3 3 4 4 4 4 9 9 7 10 9 12 6 5 7 5 3 1 2 1 3 8 16 23 21 23 23 18 13 12 10 8 7 7 10 14 16 12 10 9 8 7 7 6 3 2 5 4
5 5 6 8 7 4 2 2 4 4 5 5 8 6 5 6 11 5 6 3 8 5 4 7 14 14 18 22 26 27 24 16 18 16 13 10 8 10 8 11 19 13 9 9 9 9 8 6 2 1 2 2 4 6
6 10 2 6 2 2 5 6 5 4 4 6 4 6 6 2 7 17 19 16 8 15 17 25 26 26 21 19 16 11 12 15 17 16 14 14 13 16 14 18 15 12 9 7 6 10 6 4 2 5 4 5 5 5
7 8 5 4 3 4 6 10 6 5 3 2 1 2 6 11 12 10 7 12 18 19 21 23 23 22 20 17 16 14 13 13 12 11 9 9 11 9 7 6 3 5 6 8 5 6 5 2 3 5 7 4 6 6
9 4 4 6 9 5 3 5 5 4 8 9 8 10 4 6 14 8 4 5 9 10 14 15 15 15 15 13 14 11 9 5 8 9 7 10 5 3 9 10 7 6 6 5 5 4 3 3 2 2 4 7 7 8
1 3 3 3 2 4 3 4 7 7 6 5 4 4 5 7 4 4 4 10 21 19 9 7 5 6 8 9 7 5 5 6 4 6 6 3 3 6 8 10 9 7 5 5 3 3 3 2 2 3 7 5 6 4
2 2 2 5 3 4 3 3 3 2 2 3 3 5 4 4 3 3 3 9 11 11 14 12 11 10 10 9 9 8 5 2 2 8 9 5 7 4 14 13 11 8 4 4 4 4 2 3 2 3 5 5 2 0
5 4 8 9 11 7 6 8 9 6 3 2 1 2 3 3 3 1 3 7 8 7 7 7 7 8 8 5 3 3 3 5 5 6 5 4 5 7 7 7 3 5 5 4 6 4 3 4 4 4 3 6 3 6
4 7 4 11 11 13 5 4 3 2 2 3 4 4 3 2 2 4 4 3 5 4 5 5 3 6 5 6 11 5 2 2 8 6 3 3 5 3 2 3 6 3 4 6 4 4 6 9 7 6 5 3 5 3
6 12 13 12 6 4 6 6 5 8 16 16 6 3 4 11 13 13 4 6 9 8 4 5 4 7 8 6 4 6 4 3 1 8 7 6 7 5 4 4 3 2 2 2 1 2 4 2 2 1 3 4 3 1
8 11 19 18 7 5 11 13 19 19 20 20 21 20 21 18 15 9 13 10 8 5 11 15 16 12 10 4 7 6 6 9 5 7 8 6 7 7 7 5 3 1 1 3 5 5 3 3 4 4 5 5 7 7
15 16 14 13 9 15 16 16 18 17 15 17 16 18 19 15 14 14 11 14 10 10 8 8 6 4 3 3 4 3 5 4 3 5 8 13 11 11 8 7 7 5 4 6 4 5 6 5 3 2 4 4 6 9
5 6 9 4 6 11 12 11 10 12 10 13 12 15 15 12 7 8 7 6 8 5 5 5 7 4 2 2 3 3 6 5 5 9 11 15 14 10 11 12 9 7 6 6 4 4 5 7 6 6 7 8 9 11
5 5 3 2 2 1 3 3 6 9 8 9 13 12 11 10 4 10 11 6 6 9 7 5 5 3 3 1 3 4 4 6 6 6 11 18 17 3 6 11 9 8 8 9 10 7 6 7 7 10 11 11 12 14
Wind_Direction
272 283 280 285 290 292 293 286 291 284 280 287 294 309 319 320 312 305 159 87 14 281 281 274 289 311 334 346 12 323 20 15 37 67 112 204 135 251 124 232 205 186 177 212 108 139 275 183 46 142 186 163 151 133
265 270 278 283 284 283 286 285 283 281 276 274 283 301 318 315 313 305 172 178 292 257 270 279 280 248 261 283 280 334 14 12 35 89 53 90 38 43 141 264 339 333 187 177 167 206 260 100 115 98 131 121 96 71
258 263 274 280 284 274 280 282 273 276 275 265 275 289 309 319 312 304 246 348 251 310 301 270 269 238 240 223 174 304 51 26 23 35 136 138 76 107 66 57 352 332 9 99 70 342 101 80 83 80 78 101 82 40
258 263 268 271 281 264 272 275 263 266 266 264 260 284 303 304 293 290 249 157 32 324 284 286 246 299 200 206 214 238 270 6 23 46 70 95 110 65 205 188 102 247 13 336 48 76 78 55 76 90 106 93 53 333
251 257 260 259 267 263 268 270 258 257 257 258 247 271 292 301 294 282 238 196 121 351 303 295 312 185 160 187 195 214 223 184 44 42 57 205 253 71 354 74 12 33 275 94 223 164 116 101 89 79 73 53 290 265
249 253 254 249 253 263 260 265 249 255 248 242 227 254 286 298 294 347 101 162 155 234 272 310 312 252 160 180 186 203 197 190 160 148 194 255 67 107 118 173 177 76 57 71 94 108 107 89 70 60 60 43 13 346
245 249 251 247 243 255 251 251 243 241 233 227 218 249 281 284 282 242 205 153 180 196 268 304 291 247 200 214 185 190 203 183 170 169 201 220 314 76 120 177 3 70 94 107 139 124 92 64 30 11 20 14 4 4
238 244 236 234 239 246 240 237 230 220 211 202 208 256 274 269 289 260 154 167 183 198 264 275 272 290 177 148 152 174 184 196 207 200 205 186 186 153 225 234 204 172 132 131 124 116 117 102 76 21 36 24 15 39
223 227 229 223 230 231 221 219 206 194 188 187 197 233 262 273 254 76 135 150 174 210 293 293 270 262 161 176 159 165 180 122 221 166 217 158 203 196 218 196 181 188 201 156 119 92 84 65 62 44 49 43 62 28
210 207 207 214 218 205 200 191 177 172 170 170 170 179 249 163 33 114 146 148 161 221 245 242 276 277 334 75 181 159 172 193 150 230 175 145 233 218 200 194 173 164 186 153 109 118 114 96 77 82 51 51 54 51
189 196 197 197 185 184 177 169 166 165 163 157 169 277 280 325 153 203 197 170 190 239 226 234 233 242 356 113 162 148 158 105 127 259 144 209 237 206 185 173 191 161 122 115 108 113 124 122 116 89 71 59 53 46
191 184 175 171 173 167 166 164 163 160 153 156 228 300 119 181 222 240 198 212 182 232 228 196 219 203 253 141 68 50 110 50 220 296 150 179 260 155 142 129 121 122 127 110 109 106 74 64 93 94 81 64 43 34
152 150 154 160 161 163 156 161 163 151 145 191 276 160 311 227 136 230 211 211 213 215 235 177 183 168 203 102 14 78 147 213 129 51 184 202 172 142 132 137 126 138 123 110 104 105 112 119 95 74 69 57 39 52
136 142 141 149 177 171 165 161 161 167 56 292 6 13 240 200 246 222 318 307 291 307 333 188 176 157 184 144 172 147 226 122 191 154 227 174 144 132 134 127 151 141 130 126 126 121 119 110 90 74 67 60 58 57
128 137 142 143 148 155 158 152 156 160 148 272 125 223 238 255 309 344 344 333 318 334 335 333 181 166 39 121 213 102 95 229 157 183 161 134 128 133 134 143 132 129 132 135 132 129 124 112 98 91 77 63 55 53
122 131 143 145 146 148 150 158 159 118 266 242 215 255 263 296 303 345 348 340 349 341 84 184 49 86 121 147 122 197 173 195 223 160 133 130 124 133 144 142 143 131 142 140 132 133 125 103 100 94 81 75 70 58
137 151 155 151 145 145 143 143 173 239 251 233 237 254 264 278 288 339 334 318 329 301 91 9 53 354 345 85 149 40 192 193 132 131 133 129 130 125 117 112 122 134 131 136 140 138 130 115 105 99 82 78 71 64
134 138 141 144 146 146 147 167 242 257 258 254 259 285 307 295 292 296 282 292 294 219 171 175 74 277 171 155 202 215 101 133 135 122 125 130 127 121 124 127 125 127 126 132 134 135 136 138 157 157 50 57 79 71
128 139 148 154 147 132 195 222 231 274 252 274 271 282 287 289 294 286 296 271 256 240 144 144 171 185 185 170 149 157 150 142 130 126 128 134 128 125 130 138 127 123 133 138 139 141 150 133 96 52 140 100 120 107
130 150 162 157 179 306 245 221 209 260 275 280 273 276 288 292 291 328 323 169 171 149 59 83 78 3 88 123 145 152 138 131 133 132 134 138 138 130 137 149 170 132 129 133 133 127 135 129 117 108 111 310 169 138
129 163 175 208 256 248 272 252 242 244 266 255 262 260 311 296 265 256 191 136 104 198 174 137 157 168 139 121 125 131 139 136 131 121 133 130 131 129 114 106 137 127 131 145 149 143 134 110 118 70 337 174 122 89
172 175 221 223 265 279 266 242 248 257 234 271 219 215 217 178 86 82 73 74 67 78 98 108 114 126 129 135 138 138 131 121 119 116 116 122 114 100 113 123 133 126 138 149 146 150 131 88 140 64 65 131 136 125
219 227 238 239 223 245 236 196 210 237 233 238 113 65 45 49 49 66 62 54 76 87 94 101 108 113 117 121 125 126 131 131 125 128 122 107 119 105 126 117 142 136 134 129 136 124 115 93 113 104 113 156 187 155
234 241 234 197 208 261 255 218 223 192 107 71 79 84 51 47 55 53 58 46 74 98 99 96 98 109 116 119 118 122 120 109 135 132 121 147 139 131 141 137 129 118 116 125 130 121 78 26 166 217 164 114 83 194
246 255 224 224 228 306 53 45 63 67 77 58 62 49 29 52 35 31 21 30 64 65 97 146 142 111 133 125 109 98 119 91 121 139 158 199 203 151 160 138 128 111 109 120 119 117 97 67 36 74 65 149 75 105
253 215 218 19 51 63 12 36 33 80 76 74 93 120 110 89 54 42 345 61 64 69 69 101 94 90 88 98 103 106 120 74 69 83 96 115 138 191 160 149 139 121 124 179 136 163 181 181 104 193 179 126 150 303
18 350 23 59 64 63 44 67 59 64 63 86 158 90 93 76 76 10 73 127 96 84 77 68 90 101 102 108 105 102 103 175 131 123 105 73 75 107 161 155 167 185 187 195 203 213 195 161 156 140 133 197 294 305
352 353 3 6 46 60 58 47 34 10 350 37 60 40 66 83 203 73 126 153 53 134 83 145 137 102 104 70 77 136 144 72 163 160 129 83 83 90 95 62 58 68 145 72 111 46 242 239 254 225 209 211 54 48
13 50 65 50 70 66 46 63 70 76 84 87 83 69 78 86 91 133 155 104 62 63 80 93 132 121 120 124 79 28 74 97 313 166 149 132 172 143 126 106 56 8 173 323 334 90 94 91 79 98 201 203 350 152
11 64 69 63 52 47 84 108 113 105 103 102 107 103 95 93 102 87 72 78 83 86 90 92 102 113 149 131 124 116 69 42 93 122 95 89 75 135 159 178 201 276 326 306 280 256 250 301 323 269 226 234 237 271
83 84 77 62 40 72 125 104 104 108 115 118 117 120 116 104 76 63 77 68 66 70 116 95 72 45 40 89 98 127 122 104 61 15 330 328 304 258 234 217 219 227 243 247 290 267 242 263 224 251 196 236 299 317
46 65 64 54 62 63 67 85 105 111 124 128 125 117 118 101 86 46 60 79 56 80 91 50 41 57 63 42 25 349 6 9 347 351 5 2 340 294 234 217 213 193 211 235 245 261 268 283 270 292 306 304 308 311
64 59 96 97 25 47 110 87 22 43 101 108 118 114 102 90 66 50 61 73 57 67 82 30 1 11 174 156 35 29 9 324 319 334 355 3 10 8 185 191 200 220 234 244 248 227 270 289 281 278 288 301 309 313